Weather History for Minot, ND

Change the Weather History Date:

Tuesday, May 14, 2013

  Actual Average Record
Temperature  
Mean Temperature 64 °F 54 °F  
Max Temperature 73 °F 66 °F 90 °F (2001)
Min Temperature 54 °F 42 °F 16 °F (1907)
Degree Days  
Heating Degree Days 2    
Cooling Degree Days 0 0  
Month to date cooling degree days 10 0  
Year to date cooling degree days 10 1  
Growing Degree Days 14 (Base 50)    
Moisture  
Dew Point 47 °F    
Average Humidity 61    
Maximum Humidity 93    
Minimum Humidity 28    
Precipitation  
Precipitation 0.31 in 0.07 in 0.85 in (1999)
Month to date precipitation 0.31 0.98  
Year to date precipitation 1.93 3.87  
Sea Level Pressure  
Sea Level Pressure 29.65 in    
Wind  
Wind Speed 18 mph (West)    
Max Wind Speed 44 mph    
Max Gust Speed 60 mph    
Visibility 9 miles    
Events Rain , Thunderstorm    
T = Trace of Precipitation, MM = Missing Value Source: NWS Daily Summary

Daily Weather History Graph

Daily Weather History Graph

Search for Another Location

Airport:

Trip Planner

Search our weather history database for the weather conditions in past years. The results will help you decide how hot, cold, wet, or windy it might be!

Date:

Astronomy

May. 14, 2013 Rise Set
Actual Time 6:06 AM CDT 9:17 PM CDT
Civil Twilight 5:29 AM CDT 9:54 PM CDT
Nautical Twilight 4:40 AM CDT 10:43 PM CDT
Astronomical Twilight 3:39 AM CDT 11:45 PM CDT
Moon 9:48 AM CDT (5/14) 12:26 AM CDT (5/14)
Length of Visible Light 16h 25m
Length of Day
15h 10m
Waxing Crescent, 19% of the Moon is Illuminated
May 14
Waxing Crescent
May 17
First Quarter
May 24
Full
May 31
Last Quarter
Jun 8
New

Hourly Weather History & Observations

Time (CDT) Temp. Dew Point Humidity Pressure Visibility Wind Dir Wind Speed Gust Speed Precip Events Conditions
12:54 AM 64.9 °F 54.0 °F 68% 29.60 in 10.0 mi WNW 15.0 mph 31.1 mph 0.00 in Rain Light Rain
1:06 AM 64.4 °F 55.4 °F 73% 29.63 in 10.0 mi WNW 10.4 mph - 0.00 in Rain Light Rain
1:54 AM 60.1 °F 55.0 °F 83% 29.50 in 10.0 mi SSE 6.9 mph - 0.00 in   Clear
2:54 AM 61.0 °F 54.0 °F 78% 29.50 in 10.0 mi NNW 4.6 mph - N/A   Partly Cloudy
3:02 AM 60.8 °F 55.4 °F 82% 29.57 in 10.0 mi NW 11.5 mph - N/A Thunderstorm Mostly Cloudy
3:26 AM 60.8 °F 55.4 °F 82% 29.64 in 2.0 mi WNW 25.3 mph 40.3 mph 0.20 in Rain , Thunderstorm Heavy Thunderstorms and Rain
3:33 AM 60.8 °F 55.4 °F 82% 29.63 in 7.0 mi NW 17.3 mph 32.2 mph 0.20 in Rain Light Rain
3:54 AM 60.1 °F 57.0 °F 90% 29.66 in 4.0 mi West 17.3 mph 25.3 mph 0.29 in Rain Heavy Rain
4:54 AM 57.0 °F 55.0 °F 93% 29.58 in 10.0 mi NNW 6.9 mph - 0.02 in   Partly Cloudy
5:54 AM 55.0 °F 54.0 °F 96% 29.52 in 5.0 mi SSE 5.8 mph - N/A   Clear
6:54 AM 57.0 °F 55.0 °F 93% 29.55 in 10.0 mi South 8.1 mph - N/A   Clear
7:54 AM 59.0 °F 55.0 °F 87% 29.58 in 10.0 mi SW 18.4 mph 21.9 mph N/A   Scattered Clouds
8:54 AM 62.1 °F 48.9 °F 62% 29.60 in 10.0 mi WSW 20.7 mph 34.5 mph N/A   Clear
9:54 AM 63.0 °F 43.0 °F 48% 29.60 in 10.0 mi WSW 27.6 mph 36.8 mph N/A   Clear
10:54 AM 64.9 °F 42.1 °F 43% 29.59 in 10.0 mi WSW 18.4 mph 38.0 mph N/A   Clear
11:54 AM 66.0 °F 43.0 °F 43% 29.60 in 10.0 mi WSW 31.1 mph 44.9 mph N/A   Scattered Clouds
12:54 PM 66.9 °F 45.0 °F 45% 29.63 in 10.0 mi West 39.1 mph 47.2 mph N/A   Mostly Cloudy
1:54 PM 66.9 °F 45.0 °F 45% 29.65 in 10.0 mi WNW 38.0 mph 47.2 mph N/A   Partly Cloudy
2:54 PM 66.0 °F 42.1 °F 42% 29.70 in 10.0 mi NW 29.9 mph 44.9 mph N/A   Mostly Cloudy
3:54 PM 69.1 °F 42.1 °F 38% 29.72 in 10.0 mi WNW 27.6 mph 35.7 mph N/A   Mostly Cloudy
4:54 PM 71.1 °F 42.1 °F 35% 29.73 in 10.0 mi WNW 25.3 mph 35.7 mph N/A   Mostly Cloudy
5:54 PM 71.1 °F 39.0 °F 31% 29.73 in 10.0 mi WNW 19.6 mph 29.9 mph N/A   Partly Cloudy
6:54 PM 72.0 °F 37.9 °F 29% 29.73 in 10.0 mi WNW 20.7 mph 25.3 mph N/A   Partly Cloudy
7:54 PM 70.0 °F 36.0 °F 29% 29.73 in 10.0 mi WNW 16.1 mph 21.9 mph N/A   Clear
8:54 PM 66.0 °F 37.9 °F 36% 29.74 in 10.0 mi West 9.2 mph - N/A   Clear
9:54 PM 61.0 °F 37.0 °F 41% 29.78 in 10.0 mi West 9.2 mph - N/A   Clear
10:54 PM 59.0 °F 37.9 °F 46% 29.80 in 10.0 mi SW 8.1 mph - N/A   Clear
11:54 PM 60.1 °F 34.0 °F 38% 29.81 in 10.0 mi West 11.5 mph - N/A   Clear